EST,Max TemperatureF,Mean TemperatureF,Min TemperatureF,Max Dew PointF,MeanDew PointF,Min DewpointF,Max Humidity, Mean Humidity, Min Humidity, Max Sea Level PressureIn, Mean Sea Level PressureIn, Min Sea Level PressureIn, Max VisibilityMiles, Mean VisibilityMiles, Min VisibilityMiles, Max Wind SpeedMPH, Mean Wind SpeedMPH, Max Gust SpeedMPH,PrecipitationIn, CloudCover, Events, WindDirDegrees
2014-1-1,53,46,39,49,38,31,96,69,43,30.44,30.33,30.17,,,,10,6,,0.00,3,Rain,37
2014-1-2,60,54,48,59,51,47,100,96,92,30.13,29.80,29.50,10,10,10,18,5,28,0.00,8,Rain,297
2014-1-3,52,41,30,34,18,10,68,50,40,30.49,30.05,29.56,,,,28,21,39,0.00,4,Rain,327
2014-1-4,48,38,30,45,31,18,93,74,59,30.54,30.45,30.30,,,,13,9,,0.00,2,,34
2014-1-5,68,59,50,64,58,47,96,86,76,30.27,30.10,29.86,,,,14,8,23,0.00,4,Rain,142
2014-1-6,66,52,36,66,50,16,97,82,44,30.07,29.79,29.67,,,,29,15,40,0.00,4,Rain,247
2014-1-7,32,26,19,12,3,-3,47,40,30,30.55,30.40,30.12,10,10,10,25,18,36,0.00,0,,302
2014-1-8,39,33,27,23,12,4,57,42,32,30.66,30.58,30.53,,,,9,6,,0.00,0,,13
2014-1-9,48,44,39,43,31,24,86,66,45,30.60,30.54,30.49,,,,14,7,,0.00,2,,32
2014-1-10,70,58,46,67,55,43,96,78,55,30.46,30.31,30.12,,,,18,9,28,0.00,4,Rain,133
2014-1-11,77,68,59,70,66,59,100,92,74,30.13,29.89,29.67,,,,31,17,47,0.00,6,Rain,195
2014-1-12,60,53,44,57,41,34,100,65,41,30.22,29.98,29.69,,,,20,12,29,0.00,1,Rain,263
2014-1-13,66,54,43,52,43,36,82,66,45,30.26,30.16,30.02,10,10,10,14,6,18,0.00,2,,195
2014-1-14,66,58,48,64,57,47,100,93,83,30.00,29.89,29.76,,,,20,8,36,0.00,5,Rain,236
2014-1-15,55,47,39,49,45,39,97,92,64,30.01,29.95,29.87,,,,7,2,,0.00,4,,289
2014-1-16,50,43,36,46,39,33,93,85,76,30.09,29.94,29.84,,,,17,9,26,0.00,5,,322
2014-1-17,57,46,35,46,35,24,89,65,31,30.12,30.03,29.89,,,,16,7,23,0.00,0,,206
2014-1-18,55,44,30,46,29,17,86,59,42,30.10,29.97,29.82,,,,20,12,31,0.00,2,Rain,265
2014-1-19,55,42,28,37,30,20,78,62,40,30.09,30.00,29.91,,,,18,8,25,0.00,1,,223
2014-1-20,61,49,37,44,36,30,90,65,35,29.96,29.90,29.83,,,,18,10,24,0.00,0,,215
2014-1-21,64,50,33,48,40,28,90,73,38,29.85,29.62,29.46,,,,29,15,39,0.00,4,Rain-Snow,254
2014-1-22,33,30,26,28,19,15,82,66,52,30.15,29.93,29.67,,,,30,21,39,0.00,3,Snow,316
2014-1-23,39,32,24,23,16,10,77,51,33,30.37,30.26,30.15,,,,12,5,,0.00,0,,360
2014-1-24,32,26,21,13,7,2,71,45,33,30.58,30.46,30.36,,,,21,15,30,0.00,1,Snow,332
2014-1-25,50,36,21,33,22,8,66,52,34,30.32,29.96,29.69,,,,26,12,38,0.00,1,Rain,236
2014-1-26,53,45,37,38,28,21,71,53,34,30.04,29.97,29.86,,,,15,10,24,0.00,0,,224
2014-1-27,64,54,41,44,38,29,74,57,36,30.05,29.92,29.84,,,,25,10,33,0.00,0,,215
2014-1-28,39,34,28,26,24,20,85,74,54,30.30,30.16,30.07,,,,25,20,36,0.00,7,Rain-Snow,3
2014-1-29,28,26,24,24,20,14,86,76,58,30.39,30.19,30.06,,,,23,19,32,0.00,6,Snow,343
2014-1-30,37,32,27,34,26,16,93,74,61,30.41,30.32,30.21,,,,14,11,,0.00,5,Rain,1
2014-1-31,48,42,34,41,36,33,97,86,61,30.25,30.20,30.17,,,,12,7,,0.00,6,Rain,359